Regional Weather Roundup
Issued by NWS

Home | Current Version | Previous Version | Text Only | Print | Product List | Glossary On
Versions: 1 2 3 4 5 6 7 8 9 10 11 12 13 14 15 16 17 18 19 20 21 22 23 24 25 26 27 28 29
000
ASUS45 KCYS 251110
RWRWY

WYOMING REGIONAL WEATHER ROUNDUP
NATIONAL WEATHER SERVICE CHEYENNE WY
500 AM MDT SAT OCT 25 2014

NOTE:  "FAIR" INDICATES FEW OR NO CLOUDS BELOW 12,000 FEET
WITH NO SIGNIFICANT WEATHER AND/OR OBSTRUCTIONS TO VISIBILITY.

WYZ001-251200-
YELLOWSTONE NATIONAL PARK

CITY           SKY/WX    TMP DP  RH WIND       PRES   REMARKS
LK YELLOWSTONE   N/A     26  23  88 NW3       30.24
W YELLOWSTONE  NOT AVBL

$$
WYZ002>013-054>058-071-098>099-251200-
NORTHERN WYOMING

CITY           SKY/WX    TMP DP  RH WIND       PRES   REMARKS
JACKSON        CLEAR     28  25  86 N5        30.21F WCI  23
CODY           CLEAR     37  30  75 S3        30.10
GREYBULL       PTCLDY    34  28  79 SE5       30.09F WCI  30
WORLAND        PTCLDY    31  27  85 SW3       30.09F
SHERIDAN       CLEAR     28  25  88 S6        30.09F WCI  22
BUFFALO        CLEAR     39  29  67 S7        30.11F WCI  34
GILLETTE       PTCLDY    40  31  70 SE7       30.12F
HULETT         FAIR      41  30  65 S3        30.15
NEWCASTLE      FAIR      36  32  87 NE3       30.17

$$
WYZ014>020-022>026-101>103-251200-
CENTRAL WYOMING

CITY           SKY/WX    TMP DP  RH WIND       PRES   REMARKS
BIG PINEY      PTCLDY    24  18  77 CALM      30.28F
PINEDALE       SUNNY     27  23  86 W7        30.29  WCI  19
DUBOIS         FAIR      37  18  44 W16       30.20F WCI  28
LANDER         CLEAR     43  21  41 N5        30.15S
RIVERTON       PTCLDY    43  19  38 CALM      30.17S
CASPER         PTCLDY    47  26  44 SW9       30.17S
DOUGLAS        PTCLDY    34  21  59 N5        30.17F WCI  30

$$
WYZ021-027>030-104>119-251200-
SOUTHERN WYOMING

CITY           SKY/WX    TMP DP  RH WIND       PRES   REMARKS
EVANSTON       PTCLDY    49  19  30 E5        30.24F
KEMMERER       SUNNY     34  27  75 N9        30.26F WCI  26
FORT BRIDGER   FAIR      48  18  30 CALM      30.27F
ROCK SPRINGS   PTCLDY    42  26  53 SE5       30.26S
DIXON          FAIR      32  28  86 SE5       30.32F WCI  27
RAWLINS        PTCLDY    41  25  53 SW3       30.28S
SARATOGA       FAIR      41  23  48 SE10      30.31F
LARAMIE        PTCLDY    38  19  46 S6        30.31S WCI  33
CHEYENNE       PTCLDY    43  23  45 W9        30.25S
TORRINGTON     CLEAR     37  30  75 NE7       30.14S WCI  32
PINE BLUFFS    FAIR      37  28  70 W7        30.21S WCI  32

$$



USA.gov is the U.S. government's official web portal to all federal, state and local government web resources and services.